FW6934 Weather Reports


Display with metric or nautical units.
time (UTC)temp
F
wind
direction
speed
MPH
gust
MPH
rain 1hr
in
rain 24hr
in
rain mn
in
humidity
%
barometer
mb
20260505212053 62 19 1.0 5.0 0.00 0.00 0.00 74 1004.1
20260505211513 62 104 2.0 6.0 0.00 0.00 0.00 75 1004.2
20260505211002 62 31 2.0 4.0 0.00 0.00 0.00 74 1004.2
20260505210551 62 39 2.0 6.0 0.00 0.00 0.00 73 1004.2
20260505210010 61 41 2.0 6.0 0.00 0.00 0.00 74 1004.2
20260505205601 61 5 1.0 6.0 0.00 0.00 0.00 72 1004.3
20260505205050 61 355 3.0 6.0 0.00 0.00 0.00 73 1004.2
20260505204517 61 328 2.0 6.0 0.00 0.00 0.00 74 1004.3
20260505204002 61 328 1.0 3.0 0.00 0.00 0.00 74 1004.3
20260505203551 61 325 1.0 3.0 0.00 0.00 0.00 73 1004.3
20260505203012 61 338 2.0 4.0 0.00 0.00 0.00 72 1004.3
20260505202604 61 24 2.0 4.0 0.00 0.00 0.00 73 1004.4
20260505202050 61 32 1.0 3.0 0.00 0.00 0.00 73 1004.4
20260505201512 61 113 1.0 3.0 0.00 0.00 0.00 73 1004.5
20260505201100 61 185 1.0 3.0 0.00 0.00 0.00 74 1004.5
20260505200547 60 178 0.0 5.0 0.00 0.00 0.00 73 1004.6
20260505200004 60 229 3.0 6.0 0.00 0.00 0.00 73 1004.4
20260505195557 60 321 2.0 5.0 0.00 0.00 0.00 74 1004.5
20260505195043 60 296 1.0 5.0 0.00 0.00 0.00 73 1004.5
20260505194505 60 279 1.0 8.0 0.00 0.00 0.00 74 1004.5
20260505194056 60 226 1.0 5.0 0.00 0.00 0.00 74 1004.5
20260505193542 60 107 1.0 4.0 0.00 0.00 0.00 73 1004.5
20260505193002 60 169 0.0 2.0 0.00 0.00 0.00 74 1004.4
20260505192552 60 169 1.0 7.0 0.00 0.00 0.00 75 1004.5
20260505192041 60 168 3.0 7.0 0.00 0.00 0.00 74 1004.5
20260505191501 60 273 1.0 5.0 0.00 0.00 0.00 74 1004.5
20260505191052 60 269 2.0 4.0 0.00 0.00 0.00 73 1004.5
20260505190539 60 306 1.0 4.0 0.00 0.00 0.00 73 1004.5
20260505190100 60 309 1.0 6.0 0.00 0.00 0.00 73 1004.5
20260505185549 60 302 3.0 6.0 0.00 0.00 0.00 73 1004.4
20260505185037 60 219 1.0 5.0 0.00 0.00 0.00 74 1004.5
20260505184600 60 163 0.0 5.0 0.00 0.00 0.00 74 1004.5
20260505184049 60 174 1.0 3.0 0.00 0.00 0.00 76 1004.4
20260505183539 60 289 0.0 3.0 0.00 0.00 0.00 75 1004.4
20260505183107 60 289 0.0 3.0 0.00 0.00 0.00 74 1004.4
20260505182549 60 326 0.0 2.0 0.00 0.00 0.00 75 1004.4
20260505182040 59 221 0.0 5.0 0.00 0.00 0.00 75 1004.4
20260505181503 59 307 3.0 5.0 0.00 0.00 0.00 75 1004.3
20260505181053 59 236 0.0 4.0 0.00 0.00 0.00 74 1004.3
20260505180541 59 196 0.0 5.0 0.00 0.00 0.00 75 1004.3
20260505180105 59 201 1.0 5.0 0.00 0.00 0.00 76 1004.3
20260505175543 59 323 2.0 5.0 0.00 0.00 0.00 75 1004.2
20260505175032 59 273 2.0 4.0 0.00 0.00 0.00 77 1004.3
20260505174557 58 161 1.0 3.0 0.00 0.00 0.00 76 1004.2
20260505174035 58 178 0.0 3.0 0.00 0.00 0.00 78 1004.3
20260505173509 58 269 1.0 2.0 0.00 0.00 0.00 78 1004.2
20260505173014 57 136 0.0 2.0 0.00 0.00 0.00 79 1004.2
20260505172559 57 153 0.0 4.0 0.00 0.00 0.00 80 1004.3
20260505172050 57 169 1.0 5.0 0.00 0.00 0.00 80 1004.2
20260505171509 56 19 1.0 4.0 0.00 0.00 0.00 80 1004.1
20260505171059 56 242 2.0 5.0 0.00 0.00 0.00 81 1004.2
20260505170546 56 306 1.0 5.0 0.00 0.00 0.00 81 1004.1
20260505170101 56 276 1.0 5.0 0.00 0.00 0.00 81 1004.0
20260505165542 56 244 2.0 5.0 0.00 0.00 0.00 82 1004.0
20260505165030 55 286 0.0 4.0 0.00 0.00 0.00 82 1004.1
20260505164501 55 291 1.0 4.0 0.00 0.00 0.00 83 1004.0
20260505164051 55 295 1.0 5.0 0.00 0.00 0.00 83 1004.0
20260505163537 55 236 2.0 5.0 0.00 0.00 0.00 84 1004.0
20260505163015 55 334 2.0 8.0 0.00 0.00 0.00 84 1003.9
20260505162557 54 191 1.0 9.0 0.00 0.00 0.00 84 1003.9
20260505162045 54 257 2.0 9.0 0.00 0.00 0.00 85 1003.9
20260505161505 54 355 0.0 6.0 0.00 0.00 0.00 86 1003.9
20260505161041 54 310 2.0 8.0 0.00 0.00 0.00 86 1003.9
20260505160516 53 288 3.0 8.0 0.00 0.00 0.00 86 1003.9
20260505153010 53 154 0.0 2.0 0.00 0.00 0.00 89 1003.8
20260505152559 53 159 0.0 2.0 0.00 0.00 0.00 89 1003.8
20260505152047 53 171 0.0 0.0 0.00 0.00 0.00 89 1003.7
20260505151518 52 174 0.0 0.0 0.00 0.00 0.00 89 1003.8
20260505151007 52 174 0.0 0.0 0.00 0.00 0.00 89 1003.7
20260505150556 52 174 0.0 0.0 0.00 0.00 0.00 89 1003.7
20260505140548 51 175 0.0 0.0 0.00 0.00 0.00 89 1003.3
20260505124519 50 175 0.0 0.0 0.00 0.00 0.00 89 1002.9
20260505124102 50 175 0.0 0.0 0.00 0.00 0.00 89 1002.9
20260505123549 50 175 0.0 0.0 0.00 0.00 0.00 89 1002.9
20260505123007 50 175 0.0 0.0 0.00 0.00 0.00 89 1002.9
20260505122558 49 175 0.0 0.0 0.00 0.00 0.00 89 1002.9
20260505122046 49 175 0.0 0.0 0.00 0.00 0.00 88 1002.9
20260505121601 49 175 0.0 0.0 0.00 0.00 0.00 88 1002.9
20260505121048 49 175 0.0 0.0 0.00 0.00 0.00 88 1002.8
20260505120537 49 175 0.0 0.0 0.00 0.00 0.00 88 1002.8
20260505120058 49 175 0.0 0.0 0.00 0.00 0.00 88 1002.8
20260505115546 49 175 0.0 0.0 0.00 0.00 0.00 88 1002.7
20260505115035 49 175 0.0 0.0 0.00 0.00 0.00 88 1002.8
20260505114505 49 175 0.0 0.0 0.00 0.00 0.00 88 1002.7
20260505114056 49 175 0.0 0.0 0.00 0.00 0.00 88 1002.7
20260505113546 49 175 0.0 0.0 0.00 0.00 0.00 88 1002.8
20260505113005 49 175 0.0 0.0 0.00 0.00 0.00 87 1002.6
20260505112555 49 175 0.0 0.0 0.00 0.00 0.00 87 1002.6
20260505112043 49 175 0.0 0.0 0.00 0.00 0.00 87 1002.6
20260505111513 49 175 0.0 0.0 0.00 0.00 0.00 87 1002.6
20260505111056 49 175 0.0 0.0 0.00 0.00 0.00 87 1002.5
20260505110542 49 175 0.0 0.0 0.00 0.00 0.00 87 1002.6
20260505102040 50 175 0.0 0.0 0.00 0.00 0.00 86 1002.2
20260505101602 50 175 0.0 0.0 0.00 0.00 0.00 86 1002.2
20260505101051 50 175 0.0 0.0 0.00 0.00 0.00 86 1002.3
20260505100538 50 175 0.0 0.0 0.00 0.00 0.00 85 1002.3
20260505100005 50 175 0.0 0.0 0.00 0.00 0.00 85 1002.2
20260505095556 50 175 0.0 0.0 0.00 0.00 0.00 85 1002.1
20260505095046 50 175 0.0 0.0 0.00 0.00 0.00 85 1002.1
20260505094504 51 175 0.0 0.0 0.00 0.00 0.00 85 1002.1
20260505094055 51 175 0.0 0.0 0.00 0.00 0.00 85 1002.0
20260505093543 51 175 0.0 0.0 0.00 0.00 0.00 85 1002.0
20260505093013 51 175 0.0 0.0 0.00 0.00 0.00 85 1002.0
20260505092503 51 175 0.0 0.0 0.00 0.00 0.00 85 1001.9
20260505092052 51 175 0.0 0.0 0.00 0.00 0.00 85 1002.0
20260505091509 51 175 0.0 0.0 0.00 0.00 0.00 85 1001.8
20260505091102 52 175 0.0 0.0 0.00 0.00 0.00 84 1001.8
20260505090547 52 175 0.0 0.0 0.00 0.00 0.00 84 1001.7
20260505090014 52 175 0.0 0.0 0.00 0.00 0.00 84 1001.6
20260505085556 52 175 0.0 0.0 0.00 0.00 0.00 84 1001.6
20260505085043 52 175 0.0 0.0 0.00 0.00 0.00 84 1001.5
20260505084503 53 175 0.0 0.0 0.00 0.00 0.00 84 1001.5
20260505084053 53 175 0.0 0.0 0.00 0.00 0.00 84 1001.4
20260505083541 53 175 0.0 0.0 0.00 0.00 0.00 85 1001.5
20260505083008 53 175 0.0 0.0 0.00 0.00 0.00 85 1001.5
20260505082554 53 175 0.0 0.0 0.00 0.00 0.00 85 1001.6
20260505082041 53 175 0.0 0.0 0.00 0.00 0.00 84 1001.5
20260505081510 54 175 0.0 0.0 0.00 0.00 0.00 85 1001.4
20260505081101 54 175 0.0 0.0 0.00 0.00 0.00 84 1001.4
20260505080549 54 175 0.0 0.0 0.00 0.00 0.00 84 1001.2
20260505080005 54 175 0.0 0.0 0.00 0.00 0.00 84 1001.1
20260505075552 54 175 0.0 0.0 0.00 0.00 0.00 84 1001.2
20260505075042 54 175 0.0 0.0 0.00 0.00 0.00 84 1001.1
20260505074503 55 175 0.0 0.0 0.00 0.00 0.00 84 1001.1
20260505074054 55 175 0.0 0.0 0.00 0.00 0.00 84 1001.0
20260505073542 55 175 0.0 0.0 0.00 0.00 0.00 84 1001.0
20260505073001 55 175 0.0 0.0 0.00 0.00 0.00 84 1001.0
20260505072551 55 175 0.0 0.0 0.00 0.00 0.00 84 1000.9
20260505072040 55 175 0.0 0.0 0.00 0.00 0.00 84 1000.9
20260505071503 55 175 0.0 0.0 0.00 0.00 0.00 84 1000.7
20260505071051 56 175 0.0 0.0 0.00 0.00 0.00 84 1000.7
20260505070538 56 175 0.0 0.0 0.00 0.00 0.00 84 1000.6
20260505070104 56 175 0.0 0.0 0.00 0.00 0.00 85 1000.6
20260505065549 56 175 0.0 0.0 0.00 0.00 0.00 84 1000.5
20260505065038 56 175 0.0 0.0 0.00 0.00 0.00 84 1000.5
20260505064558 56 175 0.0 0.0 0.00 0.00 0.00 83 1000.4
20260505064047 56 175 0.0 0.0 0.00 0.00 0.00 83 1000.3
20260505063535 56 175 0.0 0.0 0.00 0.00 0.00 83 1000.2
20260505063007 57 175 0.0 0.0 0.00 0.00 0.00 83 1000.2
20260505062558 57 175 0.0 0.0 0.00 0.00 0.00 83 1000.1
20260505062047 57 175 0.0 0.0 0.00 0.00 0.00 83 1000.1
20260505061504 57 175 0.0 0.0 0.00 0.00 0.00 82 1000.2
20260505061055 57 175 0.0 0.0 0.00 0.00 0.00 82 1000.1
20260505060543 57 175 0.0 0.0 0.00 0.00 0.00 82 1000.0
20260505060032 57 175 0.0 0.0 0.00 0.00 0.00 82 1000.2
20260505055603 58 175 0.0 0.0 0.00 0.00 0.00 81 1000.1
20260505055051 58 175 0.0 0.0 0.00 0.00 0.00 81 1000.1
20260505054512 58 175 0.0 0.0 0.00 0.00 0.00 81 1000.0
20260505054102 58 175 0.0 0.0 0.00 0.00 0.00 80 1000.0
20260505053548 58 175 0.0 0.0 0.00 0.00 0.00 80 1000.1
20260505053101 58 175 0.0 0.0 0.00 0.00 0.00 80 1000.0
20260505052548 59 175 0.0 0.0 0.00 0.00 0.00 80 999.9
20260505052036 59 175 0.0 0.0 0.00 0.00 0.00 79 1000.0
20260505051608 59 175 0.0 0.0 0.00 0.00 0.00 79 999.9
20260505051048 59 175 0.0 0.0 0.00 0.00 0.00 78 999.8
20260505050537 59 175 0.0 0.0 0.00 0.00 0.00 78 999.8
20260505050105 60 175 0.0 0.0 0.00 0.00 0.00 78 999.7
20260505041508 62 175 0.0 0.0 0.00 0.00 0.00 73 999.0
20260505041056 63 175 0.0 0.0 0.00 0.00 0.00 73 999.0
20260505040544 63 175 0.0 0.0 0.00 0.00 0.00 73 998.9
20260505040003 63 175 0.0 0.0 0.00 0.00 0.00 72 998.7
20260505035552 64 175 0.0 0.0 0.00 0.00 0.00 72 998.7
20260505035041 64 175 0.0 0.0 0.00 0.00 0.00 71 998.6
20260505034512 64 175 0.0 0.0 0.00 0.00 0.00 71 998.5
20260505034102 65 175 0.0 0.0 0.00 0.00 0.00 71 998.4
20260505033551 65 175 0.0 0.0 0.00 0.00 0.00 71 998.4
20260505033013 65 175 0.0 0.0 0.00 0.00 0.00 70 998.3
20260505032601 66 175 0.0 0.0 0.00 0.00 0.00 70 998.3
20260505032052 66 175 0.0 0.0 0.00 0.00 0.00 70 998.2
20260505031601 66 175 0.0 0.0 0.00 0.00 0.00 70 998.1
20260505031047 66 175 0.0 0.0 0.00 0.00 0.00 69 998.0
20260505030538 67 175 0.0 0.0 0.00 0.00 0.00 70 998.0
20260505030057 67 175 0.0 0.0 0.00 0.00 0.00 70 998.0
20260505025545 67 175 0.0 0.0 0.00 0.00 0.00 69 997.9
20260505025034 67 175 0.0 3.0 0.00 0.00 0.00 68 997.9
20260505024506 68 175 0.0 4.0 0.00 0.00 0.00 68 997.9
20260505024053 68 184 0.0 4.0 0.00 0.00 0.00 68 997.8
20260505023543 68 51 0.0 6.0 0.00 0.00 0.00 66 997.8
20260505023011 69 195 1.0 6.0 0.00 0.00 0.00 66 997.8
20260505022554 69 182 0.0 6.0 0.00 0.00 0.00 65 997.7
20260505022042 69 302 1.0 8.0 0.00 0.00 0.00 65 997.8
20260505021515 69 173 3.0 8.0 0.00 0.00 0.00 65 997.7
20260505021103 69 240 0.0 6.0 0.00 0.00 0.00 65 997.7
20260505020550 70 142 1.0 10.0 0.00 0.00 0.00 64 997.8
20260505020008 70 229 4.0 10.0 0.00 0.00 0.00 64 997.7
20260505015559 70 308 3.0 10.0 0.00 0.00 0.00 64 997.7
20260505015048 71 182 2.0 7.0 0.00 0.00 0.00 64 997.7
20260505014514 71 249 0.0 3.0 0.00 0.00 0.00 64 997.7
20260505014102 71 199 0.0 5.0 0.00 0.00 0.00 63 997.7
20260505013548 71 159 1.0 7.0 0.00 0.00 0.00 63 997.7
20260505013006 72 294 3.0 7.0 0.00 0.00 0.00 63 997.7
20260505012557 72 165 2.0 5.0 0.00 0.00 0.00 63 997.8
20260505012046 72 169 2.0 5.0 0.00 0.00 0.00 64 997.7
20260505011505 72 212 1.0 8.0 0.00 0.00 0.00 64 997.8
20260505011055 72 201 2.0 7.0 0.00 0.00 0.00 64 997.8
20260505010542 72 136 3.0 7.0 0.00 0.00 0.00 64 997.9
20260505010004 72 284 2.0 7.0 0.00 0.00 0.00 64 997.9
20260505005554 72 193 0.0 5.0 0.00 0.00 0.00 64 997.9
20260505005042 72 193 1.0 5.0 0.00 0.00 0.00 63 997.8
20260505004503 72 56 1.0 5.0 0.00 0.00 0.00 63 997.8
20260505004052 73 264 0.0 4.0 0.00 0.00 0.00 64 998.0
20260505003543 72 171 1.0 4.0 0.00 0.00 0.00 63 998.0
20260505003002 73 195 1.0 5.0 0.00 0.00 0.00 64 998.1
20260505002553 73 111 0.0 8.0 0.00 0.00 0.00 63 998.1
20260505002042 73 171 3.0 8.0 0.00 0.00 0.00 63 998.1
20260505001502 73 74 1.0 6.0 0.00 0.00 0.00 63 998.1
20260505001054 73 204 2.0 6.0 0.00 0.00 0.00 64 998.1
20260505000543 73 220 2.0 6.0 0.00 0.00 0.00 63 998.2
20260505000109 73 96 1.0 7.0 0.00 0.00 0.00 63 998.3
20260504235552 73 132 1.0 7.0 0.00 0.00 0.00 64 998.2
20260504235039 73 98 1.0 9.0 0.00 0.00 0.00 64 998.3
20260504234500 73 155 4.0 9.0 0.00 0.00 0.00 64 998.3
20260504234051 73 249 3.0 8.0 0.00 0.00 0.00 64 998.4
20260504233539 72 233 0.0 5.0 0.00 0.00 0.00 64 998.5
20260504233108 72 65 1.0 7.0 0.00 0.00 0.00 64 998.6
20260504232551 73 186 1.0 9.0 0.00 0.00 0.00 62 998.6
20260504232038 73 182 2.0 9.0 0.00 0.00 0.00 63 998.6
20260504231601 73 125 2.0 4.0 0.00 0.00 0.00 64 998.5
20260504231048 72 242 1.0 6.0 0.00 0.00 0.00 64 998.6
20260504230539 72 55 0.0 6.0 0.00 0.00 0.00 62 998.6
20260504230105 73 132 2.0 5.0 0.00 0.00 0.00 63 998.7
20260504225547 72 127 2.0 9.0 0.00 0.00 0.00 64 998.7
20260504225035 72 206 3.0 9.0 0.00 0.00 0.00 64 998.8
20260504224558 72 201 2.0 9.0 0.00 0.00 0.00 63 998.8
20260504224046 72 251 3.0 9.0 0.00 0.00 0.00 64 998.9
20260504223533 72 151 2.0 9.0 0.00 0.00 0.00 62 999.0
20260504223005 72 73 1.0 9.0 0.00 0.00 0.00 65 999.0
20260504222554 72 360 1.0 7.0 0.00 0.00 0.00 64 999.0
20260504222041 72 238 2.0 8.0 0.00 0.00 0.00 64 999.1
20260504221502 72 264 4.0 8.0 0.00 0.00 0.00 63 999.2
20260504221051 71 131 2.0 9.0 0.00 0.00 0.00 65 999.1
20260504220540 71 159 4.0 9.0 0.00 0.00 0.00 63 999.2
20260504220009 71 266 3.0 6.0 0.00 0.00 0.00 63 999.2
20260504215559 72 232 2.0 10.0 0.00 0.00 0.00 62 999.3
20260504215047 71 175 5.0 10.0 0.00 0.00 0.00 63 999.3
20260504214517 72 113 2.0 5.0 0.00 0.00 0.00 62 999.3
20260504214058 72 182 2.0 5.0 0.00 0.00 0.00 63 999.4
20260504213547 71 246 1.0 5.0 0.00 0.00 0.00 63 999.4
20260504213008 70 284 0.0 7.0 0.00 0.00 0.00 66 999.5
20260504212559 70 252 2.0 9.0 0.00 0.00 0.00 63 999.5